Weather History for KOGA - April, 2014

Change the Weather History Date:

Saturday, April 19, 2014

  Actual Average Record
Temperature  
Mean Temperature 58 °F -  
Max Temperature 69 °F 64 °F 87 °F (1987)
Min Temperature 46 °F 37 °F 20 °F (1953)
Degree Days  
Heating Degree Days 7    
Growing Degree Days 8 (Base 50)    
Moisture  
Dew Point 38 °F    
Average Humidity 50    
Maximum Humidity 78    
Minimum Humidity 27    
Precipitation  
Precipitation 0.00 in - - ()
Sea Level Pressure  
Sea Level Pressure 29.97 in    
Wind  
Wind Speed 10 mph (ENE)    
Max Wind Speed 23 mph    
Max Gust Speed 29 mph    
Visibility 10 miles    
Events      
Averages and records for this station are not official NWS values.
T = Trace of Precipitation, MM = Missing Value Source: NWS Daily Summary

Daily Weather History Graph

Daily Weather History Graph

Search for Another Location

Airport or City:

Trip Planner

Search our weather history database for the weather conditions in past years. The results will help you decide how hot, cold, wet, or windy it might be!

Date:

Astronomy

Apr. 19, 2014 Rise Set
Actual Time 6:01 AM MDT 7:31 PM MDT
Civil Twilight 5:32 AM MDT 8:00 PM MDT
Nautical Twilight 4:58 AM MDT 8:35 PM MDT
Astronomical Twilight 4:21 AM MDT 9:12 PM MDT
Moon No Moon Rise 9:20 AM MDT (4/19)
Length of Visible Light 14h 27m
Length of Day
13h 29m
Waning Gibbous, 78% of the Moon is Illuminated
Apr 19
Waning Gibbous
Apr 22
Last Quarter
Apr 29
New
May 6
First Quarter
May 14
Full

Hourly Weather History & Observations

Time (MDT) Temp. Dew Point Humidity Pressure Visibility Wind Dir Wind Speed Gust Speed Precip Events Conditions
12:15 AM 57.4 °F 41.9 °F 56% 29.84 in 10.0 mi South 21.9 mph 28.8 mph N/A   Clear
12:35 AM 57.4 °F 41.9 °F 56% 29.84 in 10.0 mi South 15.0 mph 28.8 mph N/A   Clear
12:55 AM 57.2 °F 41.9 °F 57% 29.86 in 10.0 mi WSW 8.1 mph - N/A   Clear
1:15 AM 56.3 °F 41.9 °F 59% 29.84 in 10.0 mi Calm Calm - N/A   Clear
1:35 AM 55.6 °F 41.9 °F 60% 29.84 in 10.0 mi Calm Calm - N/A   Clear
1:55 AM 55.6 °F 41.9 °F 60% 29.84 in 10.0 mi SSW 5.8 mph - N/A   Clear
2:15 AM 54.9 °F 41.9 °F 62% 29.84 in 10.0 mi South 8.1 mph 12.7 mph N/A   Clear
2:35 AM 54.3 °F 41.9 °F 63% 29.84 in 10.0 mi Calm Calm - N/A   Clear
2:55 AM 53.2 °F 42.1 °F 66% 29.87 in 10.0 mi North 4.6 mph 20.7 mph N/A   Clear
3:15 AM 52.5 °F 41.9 °F 67% 29.85 in 10.0 mi Calm Calm - N/A   Clear
3:35 AM 50.4 °F 41.4 °F 71% 29.87 in 10.0 mi NNE 5.8 mph - N/A   Clear
3:55 AM 49.3 °F 41.4 °F 74% 29.85 in 10.0 mi SE 4.6 mph - N/A   Clear
4:15 AM 50.4 °F 41.9 °F 73% 29.87 in 10.0 mi ENE 4.6 mph - N/A   Clear
4:35 AM 50.5 °F 42.1 °F 73% 29.87 in 10.0 mi East 3.5 mph - N/A   Clear
4:55 AM 49.5 °F 41.9 °F 75% 29.88 in 10.0 mi East 3.5 mph - N/A   Clear
5:15 AM 48.6 °F 41.5 °F 77% 29.88 in 10.0 mi East 3.5 mph - N/A   Clear
5:35 AM 49.1 °F 41.5 °F 75% 29.89 in 10.0 mi Calm Calm - N/A   Clear
5:55 AM 47.5 °F 41.0 °F 78% 29.91 in 10.0 mi NE 8.1 mph - N/A   Clear
6:15 AM 49.3 °F 41.5 °F 75% 29.91 in 10.0 mi North 12.7 mph - N/A   Clear
6:35 AM 48.2 °F 41.5 °F 78% 29.94 in 10.0 mi NE 5.8 mph - N/A   Clear
6:55 AM 48.9 °F 41.9 °F 77% 29.94 in 10.0 mi NE 8.1 mph - N/A   Clear
7:15 AM 51.1 °F 41.9 °F 71% 29.95 in 10.0 mi NE 17.3 mph - N/A   Clear
7:35 AM 52.7 °F 39.9 °F 62% 29.96 in 10.0 mi NE 20.7 mph 24.2 mph N/A   Clear
7:55 AM 52.7 °F 39.2 °F 60% 29.98 in 10.0 mi NE 21.9 mph 28.8 mph N/A   Clear
8:15 AM 52.9 °F 39.2 °F 60% 29.99 in 10.0 mi NE 21.9 mph 26.5 mph N/A   Clear
8:35 AM 53.8 °F 39.2 °F 58% 30.00 in 10.0 mi NE 17.3 mph - N/A   Clear
8:55 AM 55.4 °F 37.4 °F 51% 30.00 in 10.0 mi NE 23.0 mph 27.6 mph N/A   Clear
9:15 AM 56.3 °F 36.7 °F 48% 30.00 in 10.0 mi NE 17.3 mph 26.5 mph N/A   Clear
9:35 AM 57.6 °F 35.1 °F 43% 30.00 in 10.0 mi NE 23.0 mph 27.6 mph N/A   Clear
9:55 AM 58.1 °F 35.2 °F 42% 30.01 in 10.0 mi NE 21.9 mph 27.6 mph N/A   Clear
10:15 AM 59.2 °F 35.6 °F 41% 30.01 in 10.0 mi NE 21.9 mph 25.3 mph N/A   Clear
10:35 AM 59.9 °F 35.4 °F 40% 30.03 in 10.0 mi ENE 19.6 mph - N/A   Clear
10:55 AM 60.3 °F 35.2 °F 39% 30.04 in 10.0 mi NE 13.8 mph - N/A   Clear
11:15 AM 61.0 °F 34.9 °F 38% 30.01 in 10.0 mi NE 21.9 mph 26.5 mph N/A   Clear
11:35 AM 61.7 °F 35.1 °F 37% 30.03 in 10.0 mi ENE 15.0 mph - N/A   Clear
11:55 AM 63.9 °F 34.0 °F 33% 30.02 in 10.0 mi NNE 17.3 mph 21.9 mph N/A   Clear
12:15 PM 63.0 °F 32.7 °F 32% 30.03 in 10.0 mi NE 13.8 mph 21.9 mph N/A   Clear
12:35 PM 64.4 °F 33.6 °F 32% 30.04 in 10.0 mi NNE 9.2 mph - N/A   Clear
12:55 PM 64.4 °F 33.1 °F 31% 30.03 in 10.0 mi ENE 9.2 mph - N/A   Clear
1:15 PM 64.4 °F 33.6 °F 32% 30.02 in 10.0 mi NE 13.8 mph 18.4 mph N/A   Scattered Clouds
1:35 PM 64.9 °F 33.3 °F 31% 30.04 in 10.0 mi ENE 10.4 mph 18.4 mph N/A   Mostly Cloudy
1:55 PM 64.9 °F 33.3 °F 31% 30.04 in 10.0 mi NE 8.1 mph - N/A   Mostly Cloudy
2:15 PM 66.2 °F 34.0 °F 30% 30.03 in 10.0 mi ENE 11.5 mph 18.4 mph N/A   Mostly Cloudy
2:35 PM 66.7 °F 34.2 °F 30% 30.03 in 10.0 mi NE 10.4 mph - N/A   Scattered Clouds
2:55 PM 67.6 °F 34.0 °F 29% 30.02 in 10.0 mi ENE 11.5 mph - N/A   Mostly Cloudy
3:15 PM 66.9 °F 33.1 °F 28% 30.01 in 10.0 mi NE 5.8 mph - N/A   Mostly Cloudy
3:35 PM 69.3 °F 34.0 °F 27% 30.00 in 10.0 mi East 8.1 mph - N/A   Scattered Clouds
3:55 PM 69.8 °F 33.8 °F 27% 30.00 in 10.0 mi East 10.4 mph - N/A   Clear
4:15 PM 69.3 °F 33.8 °F 27% 29.99 in 10.0 mi East 9.2 mph - N/A   Clear
4:35 PM 69.3 °F 34.0 °F 27% 29.99 in 10.0 mi East 6.9 mph - N/A   Scattered Clouds
4:55 PM 68.4 °F 33.8 °F 28% 29.99 in 10.0 mi East 6.9 mph - N/A   Scattered Clouds
5:15 PM 68.7 °F 33.8 °F 28% 29.99 in 10.0 mi ENE 10.4 mph - N/A   Mostly Cloudy
5:35 PM 69.4 °F 34.3 °F 27% 29.99 in 10.0 mi East 9.2 mph - N/A   Scattered Clouds
5:55 PM 67.1 °F 34.5 °F 30% 30.00 in 10.0 mi East 8.1 mph - N/A   Clear
6:15 PM 66.9 °F 35.2 °F 31% 30.00 in 10.0 mi East 9.2 mph - N/A   Scattered Clouds
6:35 PM 66.2 °F 34.9 °F 31% 30.00 in 10.0 mi East 10.4 mph - N/A   Scattered Clouds
6:55 PM 65.3 °F 36.3 °F 34% 30.00 in 10.0 mi East 6.9 mph - N/A   Overcast
7:15 PM 64.4 °F 37.6 °F 37% 30.00 in 10.0 mi East 6.9 mph - N/A   Overcast
7:35 PM 63.1 °F 38.5 °F 40% 30.01 in 10.0 mi SE 6.9 mph - N/A   Overcast
7:55 PM 62.1 °F 39.2 °F 43% 30.01 in 10.0 mi ESE 8.1 mph - N/A   Overcast
8:15 PM 61.3 °F 40.1 °F 46% 30.01 in 10.0 mi ESE 8.1 mph - N/A   Overcast
8:35 PM 60.3 °F 40.3 °F 48% 30.01 in 10.0 mi East 4.6 mph - N/A   Mostly Cloudy
8:55 PM 58.8 °F 40.5 °F 51% 30.00 in 10.0 mi East 9.2 mph - N/A   Scattered Clouds
9:15 PM 56.7 °F 40.5 °F 55% 30.01 in 10.0 mi Calm Calm - N/A   Clear
9:30 PM 54.7 °F 40.1 °F 58% 30.01 in 10.0 mi Calm Calm - N/A   Clear
9:55 PM 53.6 °F 39.4 °F 59% 30.01 in 10.0 mi Calm Calm - N/A   Clear
10:15 PM 52.0 °F 39.0 °F 61% 30.02 in 10.0 mi Calm Calm - N/A   Mostly Cloudy
10:35 PM 48.6 °F 38.8 °F 69% 30.02 in 10.0 mi Calm Calm - N/A   Overcast
10:55 PM 50.0 °F 40.1 °F 69% 30.01 in 10.0 mi Calm Calm - N/A   Mostly Cloudy
11:15 PM 48.4 °F 39.4 °F 71% 30.01 in 10.0 mi Calm Calm - N/A   Scattered Clouds
11:35 PM 47.7 °F 39.4 °F 73% 30.02 in 10.0 mi Calm Calm - N/A   Clear
11:55 PM 46.6 °F 38.7 °F 74% 30.02 in 10.0 mi WSW 3.5 mph - N/A   Clear